Temperature
13 14 14 15 12 10 12 12 13 13 14 16 17 17 16 16 16 17 17 18 17 17 16 16 16 16 16 16 16 16 16 16 16 15 15 15 15 15 15 15 15 14 14 14 14 14 15 15 15
13 14 14 14 10 11 12 12 12 14 16 17 17 17 16 16 17 17 17 17 17 17 16 16 15 16 16 16 16 16 16 16 15 15 15 15 15 15 15 15 14 14 14 14 14 14 14 14 14
13 13 14 9 10 11 13 13 12 14 16 16 16 16 16 16 16 16 17 17 16 16 16 15 15 15 15 15 15 15 15 15 15 15 15 15 15 15 15 14 14 14 14 14 14 14 14 14 14
13 13 12 9 11 11 12 13 13 13 15 16 16 15 15 15 15 16 16 16 16 16 15 15 15 15 15 15 15 15 15 15 15 15 15 15 15 15 14 14 14 14 14 14 14 14 14 14 14
13 13 10 9 10 11 11 12 13 13 14 15 15 14 14 15 15 15 16 16 15 15 15 15 15 15 15 15 15 15 15 15 15 15 15 15 15 14 14 14 14 14 14 14 13 14 13 13 13
12 10 9 10 10 11 11 13 13 12 13 14 14 14 14 14 15 15 15 15 15 15 15 14 14 14 14 15 15 15 15 15 15 14 14 14 14 14 14 14 14 14 13 13 13 13 13 13 13
11 8 9 9 10 11 12 13 12 12 12 13 14 13 13 14 14 14 14 14 14 14 14 14 14 14 14 14 14 14 14 14 14 14 14 14 14 14 14 14 14 13 13 13 13 13 13 13 13
11 8 9 8 10 11 12 13 13 13 12 13 13 12 12 13 13 13 14 13 13 13 13 14 14 14 14 14 14 14 14 14 14 14 14 14 14 14 14 13 13 13 13 13 13 13 13 13 13
10 8 8 8 9 10 11 12 12 12 12 11 11 12 12 12 13 13 13 13 13 13 13 13 13 13 14 14 14 13 13 14 14 13 13 13 13 13 13 13 13 13 13 13 13 13 13 13 13
9 7 8 9 9 10 10 10 10 11 10 10 10 11 11 12 12 12 12 12 12 12 12 12 13 13 13 13 13 13 13 13 13 13 13 13 13 13 13 13 13 13 13 13 13 12 12 12 12
8 7 8 9 10 10 10 9 9 9 8 9 9 9 10 11 11 11 11 11 11 12 12 12 12 12 12 12 13 13 13 13 13 13 13 13 13 13 13 13 13 12 12 12 12 12 12 12 12
7 7 8 9 9 9 9 8 8 8 8 8 9 9 9 9 10 10 10 10 11 11 11 11 11 12 12 12 12 12 12 12 12 12 12 12 12 13 13 12 12 12 12 12 12 12 12 12 12
7 7 8 8 8 8 8 7 7 7 8 8 8 8 8 8 8 9 9 10 10 10 11 11 11 11 11 11 12 12 12 12 12 12 12 12 12 12 12 12 12 12 12 12 12 12 12 12 12
7 7 7 7 8 7 7 6 6 6 7 7 7 7 7 7 7 8 9 9 9 9 10 10 10 10 11 11 11 11 11 12 12 12 12 12 12 12 12 12 12 12 12 12 11 12 11 11 11
7 6 6 6 7 7 7 6 4 5 6 6 6 5 6 6 6 7 7 8 8 9 9 10 10 10 10 10 11 11 11 11 11 11 11 11 11 11 12 12 12 11 11 11 11 11 11 11 11
6 5 5 6 6 6 6 5 4 5 5 4 4 4 5 5 5 6 6 7 8 8 9 9 9 10 10 10 10 10 11 11 11 11 11 11 11 11 11 11 11 11 11 11 11 11 11 11 11
4 4 4 5 5 5 5 4 3 4 4 3 4 4 4 4 5 5 6 6 7 7 8 8 9 9 9 9 10 10 10 10 10 10 11 10 10 10 10 11 11 11 11 11 11 11 11 11 10
4 3 4 4 4 4 3 3 3 3 3 2 3 3 3 3 4 4 5 5 6 7 7 7 8 8 9 9 9 9 9 10 10 10 10 10 10 10 10 10 10 10 10 10 10 10 10 10 10
3 3 3 3 4 4 3 2 2 2 2 1 1 2 2 2 3 3 4 4 5 6 6 7 7 8 8 8 8 9 9 9 9 9 10 10 10 10 10 10 10 10 10 10 10 10 10 10 10
3 3 2 3 4 3 2 2 1 1 1 1 0 0 1 1 2 3 3 4 4 5 5 6 6 7 7 7 8 8 8 8 9 9 9 9 9 9 9 9 9 9 9 9 10 10 10 10 10
3 2 2 2 3 3 2 2 1 1 0 -0 -0 -1 -1 -0 0 1 2 3 3 4 4 5 5 6 6 7 7 7 7 8 8 8 9 9 9 9 9 9 9 9 9 9 9 9 9 10 9
2 2 3 2 2 1 2 1 0 -0 -0 -1 -1 -2 -1 -1 -1 -0 1 2 2 3 3 4 5 5 6 6 6 7 7 7 7 8 8 8 9 9 9 9 9 9 9 9 9 9 9 9 9
1 2 2 2 1 0 1 1 -0 -1 -1 -2 -2 -2 -2 -2 -1 -1 -0 1 2 2 3 3 4 5 5 5 6 6 6 6 7 7 7 8 8 8 8 8 8 8 8 9 9 9 9 9 9
1 1 1 0 0 0 0 -0 -1 -2 -3 -3 -3 -3 -3 -3 -2 -1 -1 0 1 2 2 3 3 4 4 4 5 5 5 5 6 6 7 7 7 8 8 8 8 8 8 8 8 8 8 9 9
0 -0 -0 -0 -0 -0 -1 -1 -2 -3 -3 -3 -4 -4 -4 -3 -3 -2 -1 -0 0 1 1 2 3 3 3 4 4 4 4 5 5 6 6 6 7 7 7 7 8 8 8 8 8 8 8 8 8
-1 -1 -1 -1 -1 -1 -2 -2 -3 -4 -4 -4 -4 -4 -4 -4 -3 -3 -2 -1 -1 -0 1 1 2 2 3 3 3 3 4 4 4 4 5 5 6 6 6 7 7 7 7 7 7 8 8 8 8
-2 -2 -2 -3 -3 -3 -3 -4 -4 -4 -4 -4 -5 -5 -5 -4 -4 -3 -3 -2 -1 -1 -0 0 1 1 2 2 2 3 3 3 4 4 4 5 5 6 6 6 7 7 7 7 7 7 7 8 8
-2 -3 -4 -3 -2 -2 -3 -4 -4 -5 -5 -5 -5 -6 -5 -5 -4 -4 -3 -3 -2 -1 -1 -0 0 1 1 1 2 2 2 3 3 3 4 4 4 5 5 6 6 6 6 7 7 7 7 7 7
-4 -4 -4 -4 -4 -3 -3 -4 -5 -5 -6 -6 -6 -6 -5 -5 -5 -5 -4 -3 -3 -2 -1 -1 -1 -0 0 0 1 1 2 2 2 3 3 4 4 4 4 5 5 6 6 6 6 7 7 7 7
-5 -5 -5 -4 -5 -5 -5 -5 -5 -6 -6 -6 -6 -6 -6 -5 -5 -5 -5 -4 -3 -2 -2 -2 -2 -1 -1 -1 -0 0 1 1 2 2 3 3 3 3 4 4 5 5 5 6 6 6 6 6 7
Wind_Speed
5 4 3 4 5 3 4 5 4 3 4 3 2 4 5 5 4 3 1 5 8 10 13 17 18 18 17 17 16 16 17 17 17 17 17 16 15 15 15 14 14 14 14 14 15 16 16 16 16
2 2 5 5 4 3 6 5 5 6 4 0 1 2 2 1 0 2 2 3 8 10 13 15 18 18 17 17 16 16 17 16 16 16 16 15 15 14 14 14 14 14 14 15 15 15 16 16 16
2 4 4 4 4 7 5 4 6 3 3 0 1 1 1 1 0 2 1 5 8 9 11 14 18 17 17 17 16 16 16 16 16 15 15 15 14 14 14 14 14 14 14 14 15 15 16 16 16
3 4 4 3 6 6 5 3 2 1 2 1 2 1 1 2 1 0 4 7 9 7 9 13 17 17 16 16 16 16 16 16 15 15 14 14 14 14 14 14 14 13 13 14 14 15 15 15 15
4 4 2 2 6 4 3 4 2 1 1 1 2 2 1 5 4 5 7 7 9 7 9 12 15 15 15 15 15 15 15 15 15 14 14 14 14 14 13 13 13 13 13 14 14 14 14 14 14
3 4 3 6 6 3 3 2 1 1 1 1 2 2 0 4 5 4 6 6 7 7 7 10 13 13 13 13 14 14 14 15 14 14 14 14 13 13 13 13 13 13 13 13 13 14 14 13 13
4 4 4 4 3 3 2 1 2 2 1 1 1 2 1 4 4 4 5 6 6 6 6 7 9 10 11 12 12 12 13 14 14 14 13 13 13 14 13 12 12 12 12 13 13 13 13 14 13
4 4 2 3 3 4 2 1 1 2 1 1 2 3 1 1 3 5 6 7 6 6 5 5 6 7 8 10 11 11 12 12 13 13 13 13 13 13 13 12 11 12 12 13 13 13 13 14 13
3 2 5 4 4 3 1 1 2 2 3 3 2 2 1 3 5 7 6 5 5 4 4 4 4 5 6 8 9 10 11 11 11 11 13 12 11 11 11 11 11 11 12 12 12 12 12 13 12
3 5 6 3 2 1 1 2 2 3 4 3 4 6 6 6 7 6 5 4 3 2 2 3 3 4 4 6 7 8 8 9 9 9 10 10 10 10 10 11 11 11 12 12 12 12 12 11 11
3 5 2 1 1 0 1 3 3 3 2 1 1 3 5 5 5 5 4 2 1 1 2 2 2 3 4 3 5 5 6 7 7 8 9 9 9 9 9 8 9 10 10 10 11 10 10 10 9
2 1 1 1 2 2 1 1 3 3 0 2 2 4 5 5 4 4 3 2 2 2 2 2 3 3 3 3 3 4 4 5 5 7 8 8 6 6 7 6 7 8 8 9 9 9 9 10 9
2 2 1 1 2 2 3 2 2 2 2 4 6 7 7 5 4 4 4 4 4 4 3 2 3 3 2 3 2 3 3 4 5 6 7 7 5 4 5 5 6 7 9 8 8 8 8 8 7
2 1 1 2 1 1 2 1 1 2 3 5 6 6 5 5 5 5 6 6 5 4 4 2 2 3 2 2 1 1 3 4 5 5 6 7 6 6 5 5 5 6 8 8 8 8 7 6 6
1 0 2 2 1 1 2 2 1 2 3 5 5 4 5 5 6 5 4 4 4 4 4 3 2 3 2 2 1 1 2 4 4 5 6 7 6 6 6 5 5 6 8 9 8 8 7 5 5
1 0 2 2 1 1 2 3 2 3 4 4 4 4 4 5 5 5 5 5 5 5 5 4 2 2 2 2 1 1 2 3 3 5 6 6 6 7 6 5 4 7 8 8 6 5 4 3 3
1 2 3 3 1 1 2 2 2 3 4 3 3 3 4 5 6 6 5 4 4 4 4 4 3 2 2 2 1 1 1 2 3 4 5 5 6 7 6 5 5 7 7 6 5 4 4 4 4
3 2 3 3 2 1 1 1 2 4 4 3 4 4 5 6 7 7 6 5 4 4 4 4 3 3 2 2 2 1 1 1 1 2 4 5 5 6 6 5 6 7 5 4 4 5 3 4 5
3 2 3 4 2 0 2 1 2 3 4 5 6 6 7 7 7 7 6 5 5 5 5 4 3 3 2 1 1 0 1 1 0 0 2 4 5 6 5 4 5 6 5 5 5 4 5 3 3
1 2 2 3 1 0 2 1 1 3 3 4 6 7 8 9 10 11 10 8 7 6 6 5 3 2 2 1 1 1 1 1 2 1 1 3 4 6 6 5 4 5 4 5 5 5 4 3 3
2 2 2 2 3 1 2 1 1 2 4 7 8 7 8 9 10 11 10 9 8 7 6 5 5 3 3 2 1 1 1 1 0 1 1 1 3 4 5 6 5 5 5 6 5 6 6 4 3
3 2 2 2 1 2 2 3 2 1 3 7 9 9 9 9 9 9 10 10 9 8 6 5 4 4 3 2 1 1 1 1 2 2 2 2 3 3 4 5 5 5 5 5 5 5 4 6 5
3 4 3 2 2 1 1 3 2 2 3 6 8 8 9 10 10 9 10 10 9 9 7 5 5 4 3 2 1 1 1 1 2 2 2 2 2 3 3 4 4 5 5 5 6 5 4 4 5
3 3 2 2 2 2 2 3 2 1 2 5 7 8 9 10 10 10 10 9 9 9 7 6 5 5 4 3 2 1 1 2 2 2 2 2 2 2 3 3 4 5 5 6 6 6 5 5 5
5 4 3 3 1 3 1 2 1 2 2 3 6 8 8 8 9 11 12 11 11 10 9 7 7 6 5 4 4 3 2 1 2 2 2 2 2 2 3 3 3 4 4 5 6 6 5 5 6
3 2 3 2 2 3 3 1 1 2 3 4 5 6 8 9 10 10 10 10 10 10 9 8 7 6 5 4 4 4 3 2 2 2 2 3 3 3 3 4 4 4 5 5 5 5 5 5 6
2 2 1 2 1 2 3 2 2 3 5 7 8 9 10 10 10 10 10 10 10 10 10 8 7 7 6 5 5 4 4 3 4 3 3 3 3 3 3 3 4 3 4 5 5 4 5 5 6
4 2 3 3 0 2 4 3 2 4 6 7 8 9 10 10 11 11 10 10 9 8 8 8 7 7 6 6 5 4 4 4 4 3 3 3 3 3 3 3 3 4 4 5 5 4 4 5 5
5 4 3 2 1 2 3 4 1 2 3 5 7 8 8 9 10 10 9 9 8 8 7 7 7 7 7 7 6 5 5 4 4 3 3 3 3 3 3 4 4 4 4 5 5 5 5 5 4
2 1 2 1 1 1 2 5 1 0 2 4 6 8 8 9 8 8 8 8 8 8 8 7 7 6 7 6 6 5 5 5 4 4 4 3 3 3 3 3 3 4 4 4 4 5 5 5 5
Wind_Direction
343 29 62 57 60 60 233 239 223 235 227 224 180 160 163 166 165 200 359 133 133 144 156 155 151 148 145 141 138 134 131 130 128 126 126 124 123 122 121 120 118 115 112 109 106 104 102 100 99
351 52 55 66 112 197 253 231 219 223 216 22 74 113 126 233 347 109 104 157 144 146 153 153 151 147 145 143 141 138 135 133 130 128 127 126 126 125 123 121 119 116 112 109 107 106 105 103 101
61 54 86 95 156 197 220 223 221 259 267 203 95 51 147 266 10 165 185 143 133 138 147 152 150 148 146 145 143 142 139 136 133 131 130 128 127 126 124 121 119 117 113 111 108 107 106 106 103
79 55 63 109 218 220 214 240 219 287 328 18 129 66 20 9 329 184 121 128 127 125 132 146 149 150 147 146 146 145 142 138 136 135 133 131 128 126 124 121 119 117 115 114 112 110 108 107 105
68 89 101 237 243 248 241 261 226 199 261 9 103 125 345 355 25 97 120 126 132 130 130 142 143 146 147 149 149 148 145 142 139 137 136 133 130 127 125 122 122 120 118 116 115 113 110 108 107
80 91 150 224 241 260 264 256 178 200 235 57 98 124 29 17 44 97 119 119 120 123 123 137 144 146 145 147 150 149 148 145 143 141 138 134 131 130 128 125 124 124 122 120 118 117 114 111 108
131 135 190 207 231 254 256 199 164 207 211 258 161 125 335 20 29 90 108 102 97 99 104 115 136 143 146 147 147 149 149 148 146 143 139 135 133 131 130 128 128 127 124 121 119 117 117 114 112
134 132 182 209 209 239 268 144 143 142 216 356 100 126 221 328 56 87 91 89 89 85 87 96 117 133 137 143 145 143 143 145 144 141 137 134 133 133 134 132 132 130 126 124 121 117 118 118 114
111 138 208 204 192 229 332 56 4 43 84 50 49 58 18 91 91 90 85 81 84 87 76 81 86 111 130 137 140 137 136 136 136 137 137 132 129 129 133 134 133 132 128 126 123 119 116 116 115
136 194 216 202 188 178 24 51 17 50 43 30 28 29 52 86 100 103 100 112 118 111 88 78 82 90 111 133 132 129 129 128 125 128 131 133 130 130 133 137 134 132 129 128 125 121 115 111 109
162 198 196 276 302 40 52 34 22 101 41 8 35 44 62 82 89 93 90 82 119 118 78 60 63 85 94 106 123 121 123 122 122 126 127 131 128 127 127 128 125 122 124 121 122 115 113 114 114
167 234 171 295 21 27 45 58 38 56 85 9 74 88 76 76 77 80 73 48 29 43 40 37 47 64 87 95 116 122 119 122 126 136 136 130 128 128 130 128 129 125 124 121 119 116 117 117 119
204 232 289 340 43 71 70 77 109 22 16 39 58 67 68 67 50 38 42 41 33 26 16 18 30 51 67 100 108 130 133 137 143 144 146 142 137 140 139 136 136 135 133 129 124 122 121 120 121
210 217 277 316 357 27 83 330 68 341 47 52 57 61 56 54 41 34 27 23 16 7 358 5 29 32 49 72 95 128 148 148 149 152 154 151 146 147 146 143 141 140 141 138 134 132 127 124 125
188 254 322 319 288 224 99 7 16 320 70 63 50 49 41 37 37 32 18 11 1 356 353 359 10 26 38 51 62 123 150 151 152 161 159 156 153 153 152 149 152 153 148 138 128 122 118 118 117
67 111 260 298 359 304 134 243 0 16 73 58 38 33 28 23 29 22 14 7 1 2 359 351 357 18 23 31 30 77 144 153 162 166 166 164 162 158 153 154 160 158 151 143 134 129 120 119 123
55 224 240 288 339 31 137 215 341 20 69 56 29 18 15 13 11 10 9 7 1 0 0 351 0 22 8 15 37 32 129 149 159 166 170 173 170 165 158 162 163 161 151 146 147 140 138 138 132
231 228 245 262 312 60 132 214 339 24 58 46 24 14 12 10 357 358 2 3 0 360 3 357 3 11 15 26 36 34 42 64 99 166 174 173 176 171 162 160 165 161 156 159 155 147 137 142 143
233 219 255 269 303 85 158 220 319 17 46 37 27 19 11 2 359 4 4 5 9 8 7 0 5 8 24 24 26 251 247 271 252 272 181 172 173 172 168 163 167 167 172 175 162 143 141 141 139
242 210 269 298 327 212 157 226 321 38 58 45 33 23 15 6 5 5 6 5 7 5 360 351 352 354 1 338 298 247 252 241 229 243 218 180 174 175 177 172 179 178 172 171 170 153 150 154 163
316 190 215 268 339 37 122 274 288 53 53 45 35 31 24 14 4 358 0 0 1 1 353 341 341 339 340 348 14 18 27 13 293 285 251 237 194 181 184 182 180 181 179 186 185 176 166 170 189
289 277 275 267 257 256 173 223 270 343 33 28 19 15 10 5 1 359 357 357 356 346 342 341 341 342 345 355 30 66 22 288 273 275 262 243 213 198 190 182 180 183 186 191 194 192 177 168 181
280 307 290 241 200 273 260 178 274 32 15 360 1 1 1 359 357 355 356 353 352 350 345 344 348 351 351 356 2 39 351 313 314 312 290 248 225 212 198 184 183 189 195 197 198 195 191 179 180
318 353 27 54 99 250 247 172 274 345 325 340 351 354 356 357 356 354 354 353 355 355 353 354 356 354 355 356 354 359 339 334 336 331 311 291 260 236 218 199 195 199 200 200 203 199 197 197 185
22 51 28 2 343 257 10 134 238 344 23 7 352 349 351 355 356 354 353 353 354 354 354 356 358 352 352 355 344 339 323 289 275 293 283 294 275 256 240 220 207 205 207 207 203 200 201 201 193
350 83 133 226 258 305 349 219 231 26 35 20 5 355 356 357 356 352 348 349 346 347 351 353 355 352 350 351 341 333 333 309 284 280 281 267 263 260 247 230 218 218 210 208 205 207 206 204 201
30 37 116 138 342 311 299 316 309 16 7 5 2 359 354 349 349 347 345 347 344 345 346 347 349 351 350 346 344 347 340 321 306 298 284 272 274 276 263 244 231 221 217 213 209 218 212 203 205
49 102 66 90 74 288 301 288 282 322 333 345 349 346 342 343 344 342 342 343 341 340 339 347 355 351 347 347 344 338 339 325 310 306 295 288 285 284 275 255 244 232 222 217 214 220 214 205 207
16 37 54 82 126 186 269 278 250 248 312 325 329 334 335 336 336 335 336 336 338 343 346 350 352 352 350 346 342 340 330 328 326 308 303 294 286 279 261 255 244 236 229 220 217 219 213 210 211
91 76 96 125 275 198 213 272 334 33 319 325 324 329 331 331 332 332 334 338 343 347 349 348 347 347 342 338 337 333 328 328 329 317 305 306 296 285 270 258 247 242 235 228 224 221 214 212 215
Height
1498 1499 1501 1504 1508 1519 1518 1511 1506 1504 1502 1500 1500 1501 1502 1504 1508 1511 1505 1503 1506 1509 1512 1515 1518 1521 1523 1526 1528 1530 1532 1534 1536 1537 1539 1540 1541 1543 1544 1545 1546 1547 1548 1549 1550 1551 1552 1552 1553
1498 1500 1503 1504 1513 1521 1516 1507 1504 1500 1499 1499 1499 1500 1501 1502 1503 1503 1502 1504 1507 1510 1513 1516 1519 1521 1524 1526 1529 1531 1533 1535 1536 1538 1540 1541 1542 1543 1545 1546 1547 1548 1549 1550 1551 1552 1553 1554 1555
1498 1500 1502 1506 1514 1513 1507 1501 1500 1498 1498 1498 1499 1500 1501 1502 1503 1503 1503 1505 1508 1510 1513 1516 1519 1522 1524 1526 1529 1531 1533 1535 1537 1539 1540 1542 1543 1544 1546 1547 1548 1549 1550 1551 1552 1553 1554 1555 1556
1498 1501 1503 1509 1508 1505 1501 1498 1497 1497 1497 1498 1499 1501 1502 1504 1504 1504 1504 1506 1508 1511 1514 1517 1519 1522 1524 1527 1529 1531 1533 1535 1537 1539 1541 1542 1544 1545 1546 1547 1549 1550 1551 1552 1553 1554 1555 1557 1558
1498 1499 1506 1510 1505 1501 1498 1497 1496 1497 1497 1498 1499 1501 1502 1504 1504 1504 1505 1506 1508 1511 1514 1517 1519 1522 1524 1527 1529 1531 1533 1535 1537 1539 1541 1542 1544 1545 1547 1548 1550 1551 1552 1553 1554 1555 1556 1558 1559
1497 1499 1508 1507 1502 1499 1497 1496 1496 1497 1498 1498 1499 1501 1503 1504 1503 1504 1506 1507 1509 1511 1514 1517 1519 1522 1524 1526 1529 1531 1533 1535 1537 1539 1541 1543 1544 1546 1547 1549 1550 1551 1553 1554 1555 1556 1558 1559 1560
1496 1500 1503 1502 1501 1499 1496 1495 1496 1497 1497 1499 1500 1501 1502 1503 1504 1505 1507 1509 1510 1512 1514 1517 1519 1522 1524 1526 1529 1531 1533 1535 1537 1539 1541 1543 1544 1546 1548 1549 1551 1552 1553 1555 1556 1557 1558 1560 1561
1493 1498 1501 1502 1500 1497 1495 1495 1496 1497 1498 1499 1500 1502 1503 1504 1505 1506 1507 1509 1511 1513 1515 1517 1519 1521 1524 1526 1528 1530 1533 1535 1537 1539 1541 1543 1544 1546 1548 1549 1551 1552 1554 1555 1556 1557 1559 1560 1561
1493 1500 1501 1499 1498 1496 1494 1495 1496 1498 1498 1500 1501 1503 1504 1504 1504 1505 1507 1509 1511 1513 1514 1516 1518 1520 1523 1525 1528 1530 1532 1534 1536 1538 1541 1542 1544 1546 1547 1549 1551 1553 1554 1555 1556 1558 1559 1561 1562
1492 1498 1496 1495 1494 1494 1494 1495 1497 1498 1499 1500 1501 1502 1503 1503 1503 1504 1506 1508 1510 1512 1514 1516 1518 1520 1522 1524 1526 1529 1531 1533 1535 1537 1540 1542 1543 1545 1547 1549 1551 1552 1554 1555 1556 1558 1559 1561 1562
1490 1493 1493 1493 1493 1493 1494 1496 1497 1498 1501 1502 1502 1501 1502 1502 1503 1504 1505 1507 1509 1511 1513 1515 1517 1519 1521 1523 1525 1527 1530 1532 1534 1537 1539 1541 1543 1544 1546 1548 1550 1551 1553 1554 1556 1557 1559 1561 1562
1491 1492 1492 1493 1493 1493 1495 1496 1499 1500 1502 1503 1502 1502 1501 1502 1502 1503 1505 1507 1508 1510 1512 1514 1516 1518 1520 1522 1524 1526 1528 1530 1533 1535 1537 1539 1541 1543 1545 1547 1549 1550 1552 1554 1555 1557 1558 1560 1562
1491 1491 1492 1492 1493 1494 1495 1497 1499 1501 1502 1502 1501 1501 1501 1501 1502 1504 1505 1506 1508 1509 1511 1513 1515 1517 1519 1521 1523 1525 1527 1529 1531 1533 1536 1538 1540 1542 1544 1545 1547 1549 1551 1553 1555 1556 1558 1560 1561
1490 1491 1492 1492 1492 1494 1495 1497 1499 1500 1501 1501 1500 1500 1501 1501 1502 1502 1503 1505 1506 1508 1509 1511 1513 1515 1517 1518 1521 1523 1526 1528 1530 1532 1534 1536 1538 1540 1542 1544 1546 1548 1550 1552 1554 1555 1557 1559 1560
1490 1491 1492 1492 1492 1494 1495 1498 1501 1501 1500 1500 1501 1501 1501 1502 1502 1502 1503 1504 1505 1506 1508 1509 1511 1513 1514 1516 1519 1521 1523 1525 1528 1530 1532 1534 1536 1538 1540 1542 1545 1547 1549 1551 1553 1554 1556 1558 1559
1490 1493 1495 1493 1493 1494 1498 1501 1502 1501 1500 1500 1501 1501 1501 1502 1502 1502 1502 1503 1504 1505 1506 1507 1509 1511 1513 1514 1517 1519 1521 1523 1526 1528 1530 1532 1534 1536 1538 1540 1543 1545 1547 1549 1551 1553 1554 1556 1558
1495 1498 1497 1495 1494 1494 1497 1502 1502 1501 1501 1501 1502 1502 1501 1501 1501 1502 1502 1502 1503 1503 1504 1505 1507 1508 1510 1512 1514 1516 1518 1520 1523 1525 1528 1530 1532 1534 1536 1538 1540 1543 1545 1547 1549 1551 1553 1554 1556
1499 1499 1498 1497 1495 1496 1499 1502 1502 1501 1502 1502 1502 1502 1501 1501 1501 1501 1501 1501 1502 1502 1503 1503 1505 1506 1508 1509 1511 1513 1515 1517 1520 1522 1525 1527 1529 1531 1534 1536 1538 1540 1542 1544 1547 1549 1551 1553 1555
1498 1498 1499 1498 1497 1498 1500 1503 1503 1502 1503 1503 1503 1502 1501 1501 1501 1501 1500 1500 1500 1500 1501 1501 1502 1503 1505 1506 1508 1510 1512 1514 1516 1519 1521 1524 1526 1529 1531 1533 1535 1537 1539 1542 1544 1546 1548 1550 1552
1497 1499 1500 1499 1497 1498 1501 1503 1503 1503 1504 1505 1504 1503 1502 1501 1500 1499 1498 1498 1498 1498 1498 1499 1500 1501 1502 1504 1505 1507 1509 1511 1513 1515 1518 1520 1523 1525 1527 1530 1532 1534 1536 1539 1541 1543 1545 1547 1549
1497 1499 1500 1500 1499 1499 1501 1504 1504 1505 1505 1506 1505 1505 1504 1502 1501 1499 1498 1497 1497 1496 1496 1497 1498 1499 1500 1501 1502 1504 1506 1507 1509 1511 1513 1516 1519 1521 1524 1526 1528 1531 1533 1535 1537 1540 1542 1544 1546
1499 1498 1498 1498 1502 1504 1502 1507 1507 1506 1507 1507 1507 1506 1504 1503 1501 1500 1498 1496 1495 1495 1495 1496 1496 1497 1498 1499 1499 1500 1501 1503 1505 1507 1509 1512 1515 1517 1520 1522 1525 1527 1529 1532 1534 1536 1539 1541 1542
1501 1498 1499 1499 1502 1506 1505 1508 1510 1509 1509 1509 1509 1508 1506 1504 1502 1499 1497 1496 1495 1494 1494 1494 1494 1494 1495 1496 1497 1498 1500 1501 1502 1504 1506 1508 1511 1513 1515 1518 1520 1523 1525 1528 1530 1533 1535 1537 1539
1502 1501 1500 1502 1505 1508 1508 1509 1513 1515 1514 1512 1511 1509 1507 1504 1502 1500 1498 1496 1494 1493 1492 1492 1492 1492 1493 1493 1494 1495 1497 1498 1499 1500 1502 1504 1506 1509 1511 1514 1516 1519 1521 1524 1526 1529 1531 1533 1536
1505 1508 1511 1511 1510 1510 1510 1511 1518 1516 1515 1514 1512 1510 1507 1505 1502 1499 1497 1494 1492 1491 1490 1490 1490 1490 1490 1490 1492 1493 1494 1495 1496 1498 1499 1500 1502 1504 1507 1509 1511 1514 1517 1520 1522 1525 1527 1529 1531
1511 1512 1518 1520 1516 1516 1515 1517 1519 1517 1516 1515 1513 1511 1508 1505 1502 1499 1497 1494 1493 1491 1489 1488 1488 1488 1488 1488 1489 1490 1491 1492 1493 1494 1496 1497 1499 1500 1503 1505 1508 1509 1512 1515 1518 1520 1523 1525 1527
1515 1518 1520 1524 1526 1527 1522 1523 1519 1516 1515 1514 1513 1510 1507 1505 1502 1499 1497 1494 1492 1490 1488 1487 1486 1486 1486 1486 1487 1487 1487 1489 1490 1491 1492 1494 1495 1497 1499 1501 1503 1505 1508 1510 1513 1516 1518 1520 1522
1520 1522 1525 1525 1526 1526 1525 1525 1524 1519 1518 1515 1513 1510 1508 1505 1502 1499 1496 1493 1491 1489 1487 1486 1485 1485 1484 1484 1484 1484 1484 1486 1486 1487 1488 1489 1491 1493 1495 1496 1498 1500 1503 1505 1508 1510 1512 1515 1517
1526 1527 1528 1530 1529 1531 1531 1528 1521 1520 1519 1517 1514 1511 1508 1505 1502 1498 1495 1493 1490 1488 1486 1484 1483 1483 1482 1481 1481 1481 1482 1482 1482 1483 1484 1485 1486 1488 1490 1492 1493 1495 1498 1500 1502 1505 1507 1509 1511
1529 1532 1532 1532 1536 1538 1538 1533 1520 1520 1518 1517 1514 1511 1508 1505 1501 1498 1495 1491 1488 1486 1484 1483 1482 1481 1480 1479 1479 1478 1479 1479 1479 1479 1480 1481 1482 1483 1485 1486 1488 1490 1492 1495 1497 1499 1501 1504 1506